TémaHozzászólásokMegtekintésekLegutolsó üzenet
Ki hitte volna?12243máj. 20. 21:06 kareshu
Linóleum285máj. 20. 21:04 k11zoltan
Waczak Szálló18642 964máj. 20. 20:32 HARCOS TIBI
Samaritan13571máj. 20. 19:51 Szíriusz
Mesterjátszma24903máj. 20. 19:37 Sweet-But-Psycho
Vincent és Theo81 700máj. 20. 19:17 Izlesekizlestelensegek
At Eternity’s Gate9565máj. 20. 19:17 Izlesekizlestelensegek
Úszó erõd11620 698máj. 20. 19:16 Dörflinger
Smaragdzöld146máj. 20. 18:49 ABG
Zombillenium146máj. 20. 18:12 kancsarzoli@gmail.com
Az ördög összes embere5251máj. 20. 18:05 nefefe
Rambo V - Utolsó vér7814 401máj. 20. 17:30 antibond
Pentecost147máj. 20. 16:40 The Cortez
Halálhozók Alamutból: az asszaszinok titkos szövetsége3447máj. 20. 16:39 hida
Szomszédok6 910859 593máj. 20. 16:36 Doomsday For The Deceiver
Napola - A Führer elit csapata8119 199máj. 20. 16:32 Sophie_Western
Wrong Turn20904máj. 20. 16:17 didislányokbabája
Nem vénnek való vidék1 111242 143máj. 20. 16:08 k11zoltan
Halál a Níluson425 123máj. 20. 16:01 czsolt76
Mátrix feltámadások17224 617máj. 20. 15:48 rotaklammer
Próbaidõ81 194máj. 20. 15:15 lucashood6
Tolvajtempó15630 077máj. 20. 14:34 czsolt76
Moszul ostroma13517máj. 20. 14:00 nick név
Égigérõ fû6831 612máj. 20. 11:39 Lámai Dala
Bor, mámor, szerelem10525 727máj. 20. 10:28 napraforgó
Az élet Ricardóéknál9312máj. 20. 10:10 sexykex
A szarvasvadász13739 379máj. 20. 10:07 sexykex
Kéjjel-nappal15029 814máj. 20. 08:57 -House-
Kölcsönadott élet5392máj. 20. 08:51 Nótárius
Kung Fu Panda 47257máj. 20. 07:38 Norbert Szalai
Vissza hozzád8141 543máj. 20. 07:31 rövid
A kétszáz éves ember17736 872máj. 20. 02:48 Vetereranmacska
John Rambo40263 876máj. 20. 01:16 Szíriusz
Cat Person152máj. 20. 00:46 The Cortez
Harmadik Figyelmeztetés2229máj. 20. 00:16 Baera007
Szirmai Albert: Mágnás Miska2128máj. 20. 00:00 bambam
Gátlástalan örökösök13404máj. 19. 23:28 Maklari Gabor
Abigail8249máj. 19. 23:17 Dewsee5
A halálkártya7292máj. 19. 23:10 Dewsee5
Fennakadva a fán264 135máj. 19. 22:55 vino-et-veritas
Ad Astra – Út a csillagokba17733 429máj. 19. 22:50 Olasz32
A vasálarcos16033 797máj. 19. 22:46 Ferenc Nith
Hókusz Pókusz5010 683máj. 19. 22:37 Révész István
A tenger szülte ország142máj. 19. 22:17 Juhász Árpád
Super 827346 996máj. 19. 22:07 Károly Kiss
Adaline varázslatos élete7225 755máj. 19. 22:06 Liza94
Vörös-tenger Búvárparadicsom10720máj. 19. 21:51 k11zoltan
Csillagok között2 294530 750máj. 19. 21:39 Olasz32
Emma és a fekete jaguár4262máj. 19. 21:02 Böhöm
A kém13852 962máj. 19. 20:58 Dörflinger